Location: Observatorio Las Palmas
(29.0667°N, 110.9333°W)
Time: 19:07:23
(UTC-07:00)

Skynet4D Del rocket - Visible Passes

Search period start: 21 December 2014 00:00
Search period end: 31 December 2014 00:00
Orbit: 763 x 1291 km, 26.9° (Epoch: 20 December)

Date Brightness Start Highest point End Pass type
(mag) Time Alt. Az. Time Alt. Az. Time Alt. Az.
21 Dec 4.4 19:24:24 10° W 19:32:34 77° S 19:34:45 50° ESE visible
21 Dec 6.3 21:18:03 10° W 21:20:24 21° W 21:20:24 21° W visible
22 Dec 4.7 18:12:34 10° W 18:20:55 76° S 18:28:06 13° E visible
22 Dec 4.5 20:06:06 10° W 20:13:45 68° SSW 20:13:45 68° SSW visible
23 Dec 4.5 18:54:13 10° W 19:02:32 76° S 19:07:09 27° ESE visible
23 Dec 5.5 20:47:53 10° W 20:52:48 37° WSW 20:52:48 37° WSW visible
24 Dec 4.8 17:42:26 10° W 17:50:49 77° S 17:58:50 10° E visible
24 Dec 4.6 19:35:56 10° W 19:44:06 66° SSW 19:46:16 48° SE visible
24 Dec 6.5 21:29:56 10° W 21:31:55 18° WSW 21:31:55 18° WSW visible
25 Dec 4.7 18:24:05 10° W 18:32:27 75° S 18:39:47 13° ESE visible
25 Dec 5.0 20:17:44 10° W 20:25:27 48° SSW 20:25:27 48° SSW visible
26 Dec 4.8 19:05:47 10° W 19:14:01 62° SSW 19:19:03 24° ESE visible
26 Dec 6.0 20:59:54 10° W 21:04:43 27° SW 21:04:43 27° SW visible
27 Dec 4.9 17:54:00 10° W 18:02:20 72° S 18:10:26 10° ESE visible
27 Dec 5.3 19:47:39 10° W 19:55:24 44° SSW 19:58:26 32° SSE visible
27 Dec 6.8 21:43:06 10° WSW 21:44:07 12° WSW 21:44:07 12° WSW visible
28 Dec 5.1 18:35:42 10° W 18:43:52 58° SSW 18:51:43 10° ESE visible
28 Dec 5.8 20:29:57 10° W 20:36:37 27° SSW 20:37:57 26° SSW visible
29 Dec 5.6 19:17:37 10° W 19:25:15 40° SSW 19:31:54 13° SE visible
29 Dec 6.6 21:13:40 10° WSW 21:17:36 15° SSW 21:17:36 15° SSW visible
30 Dec 5.4 18:05:42 10° W 18:13:42 53° SSW 18:21:38 10° SE visible
30 Dec 6.3 20:00:08 10° WSW 20:06:27 24° SSW 20:11:42 13° SSE visible
